HST
1 20580U 90037B   24154.12690863  .00006453  00000-0  30339-3 0  9994
2 20580  28.4684  86.0170 0002433 230.7982 129.2394 15.17542954675005
ISS (ZARYA)
1 25544U 98067A   24154.14112138  .00020290  00000-0  35270-3 0  9990
2 25544  51.6394  29.8703 0005731 264.9342 230.1734 15.50772906456215
CXO
1 25867U 99040B   24154.63990659  .00000428  00000-0  00000-0 0  9997
2 25867  40.8075 155.2457 8907848 295.3889   0.0934  0.37811928 14506